Weather History for KAAO - April, 2014

Change the Weather History Date:

Tuesday, April 1, 2014

  Actual Average (KICT) Record (KICT)
Temperature  
Mean Temperature 44 °F 51 °F  
Max Temperature 57 °F 63 °F 89 °F (1903)
Min Temperature 30 °F 40 °F 20 °F (1972)
Degree Days  
Heating Degree Days 22 14  
Month to date heating degree days 14  
Since 1 July heating degree days 4231  
Cooling Degree Days 0 0  
Month to date cooling degree days 0  
Year to date cooling degree days 2  
Moisture  
Dew Point 27 °F    
Average Humidity 52    
Maximum Humidity 72    
Minimum Humidity 32    
Precipitation  
Precipitation 0.00 in 0.08 in 1.67 in (1988)
Month to date precipitation 0.08  
Year to date precipitation 4.78  
Snow  
Snow 0.00 in 0.00 in 5.30 in (1901)
Month to date snowfall 0.0  
Since 1 July snowfall 14.7  
Snow Depth -    
Sea Level Pressure  
Sea Level Pressure 30.00 in    
Wind  
Wind Speed 10 mph (ENE)    
Max Wind Speed 17 mph    
Max Gust Speed 33 mph    
Visibility 9 miles    
Events      
T = Trace of Precipitation, MM = Missing Value Source: NWS Daily Summary

Daily Weather History Graph

Daily Weather History Graph

Search for Another Location

Airport or City:

Trip Planner

Search our weather history database for the weather conditions in past years. The results will help you decide how hot, cold, wet, or windy it might be!

Date:

Astronomy

Apr. 01, 2014 Rise Set
Actual Time 7:14 AM CDT 7:51 PM CDT
Civil Twilight 6:47 AM CDT 8:18 PM CDT
Nautical Twilight 6:16 AM CDT 8:49 PM CDT
Astronomical Twilight 5:44 AM CDT 9:21 PM CDT
Moon 8:19 AM CDT (4/1) 10:13 PM CDT (4/1)
Length of Visible Light 13h 30m
Length of Day
12h 37m
Waxing Crescent, 5% of the Moon is Illuminated
Apr 1
Waxing Crescent
Apr 7
First Quarter
Apr 15
Full
Apr 22
Last Quarter
Apr 29
New

Hourly Weather History & Observations

Time (CDT) Temp. Windchill Dew Point Humidity Pressure Visibility Wind Dir Wind Speed Gust Speed Precip Events Conditions
12:54 AM 39.0 °F 29.9 °F 23.0 °F 53% 30.04 in 10.0 mi North 17.3 mph - N/A   Clear
1:54 AM 36.0 °F 28.0 °F 23.0 °F 59% 30.06 in 10.0 mi North 11.5 mph - N/A   Clear
2:54 AM 34.0 °F 28.8 °F 21.9 °F 61% 30.07 in 10.0 mi North 5.8 mph - N/A   Clear
3:54 AM 30.9 °F 24.3 °F 21.9 °F 69% 30.08 in 10.0 mi NNE 6.9 mph - N/A   Clear
4:54 AM 32.0 °F 26.4 °F 21.9 °F 66% 30.06 in 10.0 mi North 5.8 mph - N/A   Clear
5:54 AM 30.9 °F 23.5 °F 21.9 °F 69% 30.06 in 10.0 mi North 8.1 mph - N/A   Mostly Cloudy
6:54 AM 30.9 °F 24.3 °F 23.0 °F 72% 30.08 in 10.0 mi North 6.9 mph - N/A   Mostly Cloudy
7:54 AM 33.1 °F 28.7 °F 23.0 °F 66% 30.12 in 10.0 mi East 4.6 mph - N/A   Overcast
8:54 AM 35.1 °F 28.6 °F 23.0 °F 61% 30.12 in 10.0 mi NE 8.1 mph - N/A   Mostly Cloudy
9:54 AM 37.9 °F 30.9 °F 24.1 °F 57% 30.11 in 10.0 mi ENE 10.4 mph - N/A   Overcast
10:54 AM 39.9 °F 33.9 °F 25.0 °F 55% 30.11 in 10.0 mi NNE 9.2 mph - N/A   Overcast
11:54 AM 45.0 °F 40.1 °F 26.1 °F 48% 30.09 in 10.0 mi ENE 9.2 mph - N/A   Mostly Cloudy
12:54 PM 48.9 °F - 27.0 °F 43% 30.08 in 10.0 mi East 11.5 mph - N/A   Overcast
1:54 PM 52.0 °F - 27.0 °F 38% 30.04 in 10.0 mi East 6.9 mph - N/A   Overcast
2:54 PM 54.0 °F - 27.0 °F 35% 29.99 in 9.0 mi East 10.4 mph 17.3 mph N/A   Overcast
3:54 PM 57.9 °F - 28.0 °F 32% 29.94 in 10.0 mi East 15.0 mph 33.4 mph N/A   Overcast
4:34 PM 55.0 °F - 28.0 °F 35% 29.91 in 9.0 mi ESE 9.2 mph - N/A   Overcast
4:54 PM 54.0 °F - 28.9 °F 38% 29.94 in 7.0 mi ESE 13.8 mph - N/A   Overcast
5:06 PM 53.1 °F - 28.9 °F 40% 29.91 in 8.0 mi SE 12.7 mph 20.7 mph N/A   Overcast
5:32 PM 53.1 °F - 30.9 °F 43% 29.90 in 8.0 mi ESE 13.8 mph - N/A   Overcast
5:54 PM 53.1 °F - 30.9 °F 43% 29.92 in 7.0 mi ESE 11.5 mph - N/A   Overcast
6:07 PM 53.1 °F - 30.9 °F 43% 29.89 in 5.0 mi ESE 12.7 mph - N/A   Haze
6:54 PM 52.0 °F - 30.9 °F 45% 29.92 in 5.0 mi ESE 11.5 mph - N/A   Haze
7:54 PM 51.1 °F - 32.0 °F 48% 29.93 in 5.0 mi East 5.8 mph - N/A   Haze
8:54 PM 50.0 °F - 32.0 °F 50% 29.93 in 7.0 mi East 8.1 mph - N/A   Overcast
9:46 PM 46.9 °F - 30.9 °F 54% 29.91 in 9.0 mi ENE 8.1 mph - N/A   Scattered Clouds
9:54 PM 46.9 °F - 30.9 °F 54% 29.94 in 9.0 mi ENE 6.9 mph - N/A   Partly Cloudy
10:54 PM 43.0 °F 38.2 °F 30.9 °F 62% 29.94 in 8.0 mi ENE 8.1 mph - N/A   Clear
11:54 PM 43.0 °F 37.7 °F 30.0 °F 60% 29.92 in 10.0 mi NE 9.2 mph - N/A   Clear